Wind_Speed
36 36 37 37 38 38 39 40 42 41 40 38 39 41 42 43 43 44 44 45 45 45 46 46 47 48 49 49 50 51 52 52 52 53 53 53 54 54 54 54 54 54 55 56
38 38 39 40 39 39 40 41 41 42 41 40 41 42 43 43 44 45 45 45 45 46 46 46 47 48 48 48 49 50 50 50 50 51 52 53 53 54 54 54 55 55 55 56
40 40 41 41 39 40 40 40 41 41 41 41 42 43 44 45 45 45 45 45 46 46 47 47 47 47 48 48 49 49 49 50 50 50 51 52 53 53 53 54 55 55 55 55
42 42 44 42 40 40 41 41 41 41 42 42 43 43 44 45 46 46 46 46 46 47 47 47 47 48 48 48 49 49 49 49 50 50 51 51 51 51 52 52 53 53 54 54
43 44 44 42 41 41 41 41 41 41 42 42 43 43 44 45 45 46 47 47 47 47 48 47 47 47 48 48 48 48 48 49 50 50 50 50 50 50 50 50 51 52 52 53
43 45 45 43 41 41 42 42 41 42 42 42 43 43 44 45 45 46 47 47 48 48 48 47 47 47 47 47 46 46 47 48 49 49 49 49 49 50 50 50 50 51 52 53
42 43 44 43 42 42 43 42 42 42 42 43 43 44 44 45 45 46 46 47 47 47 47 47 46 46 47 46 46 46 46 47 47 48 49 49 49 49 50 50 51 51 52 53
41 43 43 42 42 42 43 42 42 42 42 43 43 44 44 45 45 46 46 46 46 46 46 46 46 46 46 46 46 46 46 47 47 48 48 48 48 49 50 50 51 51 51 51
42 42 42 42 42 43 43 43 42 42 43 44 44 44 44 45 45 45 46 46 46 45 45 46 46 46 46 46 46 46 47 47 47 47 47 47 48 48 49 50 50 50 50 49
41 41 42 42 42 42 42 42 42 43 43 44 44 44 44 44 45 45 46 46 46 46 45 45 45 45 46 46 46 46 46 46 46 46 46 47 47 47 48 48 48 48 48 48
41 41 41 41 41 41 41 42 42 42 43 43 44 44 44 44 45 45 46 46 46 45 45 45 45 45 45 45 46 46 45 46 46 46 46 46 46 46 46 46 46 46 46 46
40 40 40 40 40 40 41 41 42 42 42 43 44 45 45 45 45 46 46 45 44 44 44 44 44 44 45 45 45 45 45 45 45 44 44 44 44 44 44 44 44 44 44 44
38 39 39 39 39 40 41 41 42 42 43 44 44 45 45 45 45 45 44 44 44 43 43 43 43 43 43 43 43 43 43 43 43 43 43 43 42 42 42 42 42 42 42 42
38 38 37 37 38 39 40 40 41 42 42 43 43 43 43 43 43 43 43 43 42 42 42 42 42 41 41 41 41 41 40 40 41 41 41 40 40 40 39 39 39 40 40 40
36 37 37 37 38 38 39 39 40 41 41 41 41 41 41 41 41 41 41 41 40 40 40 40 40 40 40 39 39 38 38 39 40 39 39 39 38 38 38 38 38 38 38 38
36 35 35 36 36 37 38 38 39 39 38 38 38 38 38 38 38 38 38 38 38 37 37 37 38 37 37 37 36 36 37 37 37 37 37 37 37 37 36 37 37 37 36 37
35 34 35 35 36 36 37 37 37 36 36 35 35 36 36 35 36 36 36 35 35 35 35 35 34 34 34 34 34 35 35 34 34 34 34 34 35 35 35 35 35 35 34 34
35 35 35 35 35 35 35 35 35 34 34 34 34 34 34 34 33 33 32 32 32 32 31 31 31 32 32 32 32 32 32 32 32 32 33 33 33 33 33 33 33 32 32 32
34 34 34 34 35 34 34 33 33 33 33 32 32 32 32 31 31 30 30 30 30 30 30 31 31 30 31 31 31 31 31 31 31 32 32 32 32 32 32 32 32 32 32 32
32 33 33 33 33 33 33 32 32 32 32 32 31 30 30 30 29 29 29 29 30 30 30 30 30 30 30 30 30 30 30 30 30 30 30 31 31 31 31 31 31 31 31 31
32 32 32 32 31 31 31 31 31 30 30 30 29 29 28 28 28 28 28 29 29 29 29 29 29 29 29 29 29 29 29 29 29 29 29 30 30 30 30 30 30 30 30 31
30 31 31 30 30 30 29 29 29 29 28 28 28 27 27 27 27 27 28 28 28 28 28 28 27 27 28 28 28 28 28 28 28 28 28 28 28 28 28 28 29 30 30 30
29 29 29 29 28 28 29 29 28 28 28 28 27 27 27 27 28 28 28 28 28 28 27 27 27 27 27 27 27 27 27 27 27 27 27 27 27 27 27 27 28 28 29 29
28 28 28 28 28 28 27 27 27 27 28 28 27 27 28 28 28 29 28 28 28 27 27 27 27 27 26 26 26 26 26 26 26 26 26 26 26 26 26 27 27 28 28 28
27 27 27 27 27 27 26 26 27 27 27 27 27 27 28 28 28 28 28 28 28 27 27 27 27 27 26 26 26 26 26 27 27 27 27 27 26 26 26 26 27 27 27 27
26 26 26 26 26 26 26 26 26 27 27 27 27 27 27 28 28 28 28 28 27 27 27 27 27 27 27 27 27 27 27 27 27 26 26 26 26 26 26 26 26 27 27 27
26 26 26 27 26 26 26 26 26 27 27 27 27 27 27 27 27 27 27 27 27 27 27 27 27 27 27 27 26 26 26 26 26 26 26 25 25 25 25 25 25 25 25 25
Wind_Direction
286 286 285 285 284 283 283 283 282 282 281 281 279 279 278 277 277 277 277 277 276 276 275 275 274 273 273 272 272 271 270 269 268 268 268 268 268 268 268 268 268 268 268 268
285 286 285 284 284 285 284 283 283 282 281 281 279 279 278 279 279 278 278 277 277 277 276 276 275 275 275 274 273 271 270 269 269 268 268 268 268 268 268 268 269 269 269 269
286 286 286 284 286 285 284 284 284 282 282 280 279 279 279 279 279 279 278 278 277 277 276 276 276 276 275 274 273 271 270 269 269 269 269 269 269 268 268 268 269 269 269 269
285 286 285 289 287 286 285 284 284 284 283 281 281 280 280 279 279 278 278 278 278 277 276 277 277 276 275 275 273 271 270 270 270 270 270 270 270 269 269 269 269 269 270 270
285 285 287 288 289 288 286 284 285 285 284 283 282 282 281 280 280 280 279 279 278 278 277 276 276 276 275 274 273 272 271 271 271 271 271 271 271 271 270 270 270 270 270 271
285 286 287 289 289 288 287 286 287 287 286 285 284 283 282 281 281 280 280 280 279 278 277 277 277 276 276 275 273 272 272 273 272 272 272 272 272 272 272 272 272 271 271 271
286 286 286 289 289 288 287 289 289 288 287 286 285 285 284 282 281 281 281 281 281 279 278 277 277 277 276 275 273 273 273 274 274 274 273 273 273 273 273 273 273 272 272 272
285 286 288 289 288 287 288 287 287 287 287 287 286 286 285 284 283 283 283 282 282 280 279 278 277 277 276 275 275 274 275 276 275 275 274 274 275 275 274 273 274 273 273 272
285 286 287 287 287 287 288 287 287 287 287 287 286 286 285 284 283 283 284 283 283 282 281 279 278 277 277 276 276 276 276 276 276 276 275 276 276 276 276 275 274 274 273 272
285 286 286 286 287 287 288 287 287 287 287 287 287 286 286 285 284 284 284 284 283 282 282 281 280 279 278 277 276 276 276 276 276 276 276 276 276 277 276 276 275 274 273 271
285 286 286 286 286 286 287 287 286 286 287 287 287 287 287 286 286 286 286 284 283 282 282 281 280 279 278 277 277 277 277 277 277 276 276 277 277 278 277 276 275 274 273 272
287 288 288 288 288 287 287 287 287 286 286 286 287 287 287 287 287 287 286 286 284 283 281 281 280 279 279 278 277 277 278 278 277 277 276 277 278 278 278 277 276 275 274 273
288 289 290 290 289 288 288 289 289 288 288 288 288 288 288 288 288 287 287 286 285 283 282 281 281 280 279 279 278 278 278 277 277 277 277 278 278 278 278 277 277 277 275 274
289 290 290 291 290 290 290 290 290 290 289 289 289 289 288 288 288 288 288 287 286 284 283 283 282 281 280 280 279 279 278 278 278 278 278 278 278 278 278 278 277 277 276 276
289 290 291 291 291 291 292 292 292 292 292 291 290 290 290 290 289 289 289 288 287 286 285 284 283 282 281 280 280 279 279 280 280 279 278 278 278 278 279 279 278 277 277 277
289 290 291 292 292 293 294 294 294 295 294 294 293 293 293 292 291 290 291 290 289 287 286 285 285 284 282 282 281 281 281 281 281 279 279 279 279 279 279 279 279 279 278 277
290 291 292 293 294 294 295 296 296 296 296 295 295 295 295 294 293 292 293 292 291 289 288 287 287 285 283 283 282 282 283 283 282 281 280 280 279 279 279 280 280 279 279 277
290 291 293 294 295 296 296 297 297 297 296 296 296 297 297 296 296 295 295 295 294 292 290 289 288 287 285 284 284 284 284 283 282 282 281 281 280 280 280 280 279 279 278 278
292 293 294 295 296 296 297 297 298 297 298 298 298 298 298 298 298 298 298 297 295 293 292 291 290 288 287 286 286 286 285 284 284 283 283 282 282 281 281 280 279 278 278 278
294 295 296 297 297 298 298 298 298 299 299 300 300 299 299 299 299 299 300 299 298 296 294 293 291 290 289 288 287 287 286 285 285 285 285 284 283 282 282 281 280 279 279 278
295 297 297 298 299 299 299 299 300 300 301 301 300 299 299 300 301 301 302 301 300 299 297 295 293 291 291 289 289 288 287 287 286 287 287 287 285 284 283 281 280 280 279 279
297 298 298 298 299 300 299 300 301 301 301 302 301 300 300 301 302 303 303 303 302 301 299 297 295 293 292 291 291 290 289 289 289 289 289 288 287 286 285 284 283 282 281 280
300 299 299 300 300 300 300 300 300 301 301 301 301 300 300 301 302 303 303 303 303 302 300 298 296 295 294 293 292 291 290 290 290 290 290 289 288 288 287 286 286 285 284 283
302 301 300 300 300 300 300 301 301 302 302 302 301 301 301 301 302 303 303 303 303 302 301 299 298 297 296 294 293 293 292 292 292 291 290 290 290 289 288 288 288 289 288 286
303 302 302 302 302 301 301 301 301 302 303 303 303 302 301 302 304 305 305 305 304 302 301 301 300 298 297 295 294 293 293 292 292 291 290 290 290 289 289 289 289 290 289 288
303 303 304 305 304 303 302 301 302 302 304 305 305 304 304 304 305 307 307 306 305 303 302 302 301 299 298 297 295 294 293 292 292 291 291 290 290 289 289 289 290 291 290 289
304 305 306 307 306 304 304 304 304 305 306 307 307 307 306 306 307 308 308 308 306 304 303 303 303 301 300 299 297 296 295 294 293 292 292 292 291 291 291 291 292 292 291 291
Height
5587 5585 5583 5581 5579 5577 5575 5573 5570 5570 5569 5569 5566 5563 5562 5560 5558 5557 5556 5555 5553 5552 5551 5549 5548 5547 5545 5544 5544 5543 5542 5541 5541 5540 5540 5539 5539 5539 5538 5538 5538 5538 5538 5538
5577 5575 5572 5570 5570 5568 5565 5562 5560 5558 5558 5558 5554 5552 5550 5548 5546 5545 5544 5542 5541 5539 5538 5536 5534 5533 5532 5530 5529 5528 5528 5527 5526 5526 5525 5524 5524 5523 5523 5523 5523 5523 5523 5522
5566 5565 5561 5559 5561 5558 5555 5552 5549 5546 5548 5545 5542 5540 5538 5536 5534 5532 5531 5529 5528 5526 5524 5523 5521 5519 5518 5516 5515 5514 5513 5513 5512 5511 5510 5509 5509 5508 5508 5508 5508 5507 5507 5507
5554 5553 5549 5553 5550 5547 5543 5541 5538 5536 5534 5532 5530 5528 5526 5523 5521 5520 5518 5516 5514 5512 5511 5509 5507 5505 5504 5502 5501 5500 5499 5498 5497 5496 5496 5495 5494 5493 5493 5492 5492 5492 5491 5491
5543 5539 5537 5540 5538 5535 5531 5530 5528 5524 5522 5520 5517 5516 5514 5511 5508 5506 5505 5503 5501 5499 5497 5495 5493 5492 5490 5488 5487 5486 5485 5484 5483 5482 5481 5480 5479 5479 5478 5477 5477 5476 5475 5475
5532 5528 5526 5529 5526 5522 5519 5518 5517 5512 5510 5507 5505 5503 5503 5499 5496 5494 5491 5489 5487 5485 5483 5481 5479 5478 5476 5474 5473 5472 5471 5470 5469 5468 5467 5466 5465 5464 5463 5462 5461 5461 5460 5459
5521 5516 5515 5516 5514 5510 5508 5508 5503 5500 5497 5495 5492 5490 5489 5486 5483 5481 5478 5476 5473 5471 5469 5467 5465 5463 5462 5460 5459 5458 5457 5456 5455 5453 5452 5451 5450 5449 5448 5447 5446 5446 5445 5444
5510 5506 5508 5504 5501 5499 5496 5493 5490 5487 5485 5482 5480 5477 5474 5472 5469 5467 5464 5462 5460 5457 5455 5453 5451 5449 5448 5446 5445 5444 5443 5441 5440 5439 5437 5436 5435 5434 5433 5432 5431 5430 5429 5428
5500 5499 5495 5492 5489 5486 5484 5481 5478 5475 5473 5470 5467 5465 5462 5459 5456 5454 5451 5449 5446 5444 5441 5439 5437 5435 5434 5432 5431 5429 5428 5427 5425 5424 5422 5421 5420 5419 5418 5416 5415 5414 5413 5413
5488 5487 5484 5480 5477 5474 5471 5468 5466 5463 5461 5458 5455 5452 5449 5446 5443 5441 5438 5435 5433 5430 5428 5425 5423 5421 5419 5418 5416 5415 5414 5412 5411 5409 5408 5407 5405 5404 5403 5401 5400 5399 5398 5398
5476 5475 5471 5468 5465 5462 5459 5456 5453 5451 5448 5445 5442 5439 5436 5433 5431 5428 5425 5422 5419 5417 5414 5412 5410 5407 5405 5404 5402 5401 5399 5398 5396 5395 5393 5392 5391 5389 5388 5386 5385 5384 5384 5383
5466 5463 5459 5457 5454 5450 5447 5444 5441 5438 5435 5432 5429 5427 5424 5421 5418 5414 5411 5408 5406 5403 5401 5398 5396 5394 5392 5390 5388 5387 5386 5384 5382 5381 5379 5378 5377 5376 5373 5372 5371 5370 5369 5368
5454 5451 5448 5445 5442 5438 5435 5432 5429 5426 5423 5420 5417 5414 5411 5408 5405 5401 5398 5395 5392 5390 5387 5385 5383 5380 5378 5376 5375 5373 5372 5370 5369 5367 5366 5364 5363 5362 5361 5359 5358 5356 5355 5354
5443 5440 5437 5434 5431 5427 5424 5420 5417 5414 5410 5407 5404 5401 5398 5395 5392 5388 5385 5382 5379 5377 5374 5372 5370 5367 5365 5363 5362 5360 5358 5357 5355 5354 5352 5351 5350 5349 5347 5347 5346 5344 5342 5341
5433 5430 5426 5423 5420 5416 5413 5409 5406 5402 5399 5395 5392 5389 5385 5382 5379 5376 5373 5370 5367 5364 5361 5359 5357 5355 5352 5351 5349 5347 5346 5344 5343 5341 5340 5338 5337 5336 5335 5334 5333 5332 5330 5329
5422 5419 5416 5413 5409 5406 5402 5399 5395 5391 5387 5384 5381 5377 5374 5370 5367 5364 5361 5358 5355 5352 5350 5347 5345 5342 5340 5339 5337 5335 5334 5332 5330 5329 5328 5326 5325 5324 5323 5322 5321 5319 5318 5317
5412 5409 5406 5403 5399 5396 5392 5388 5384 5381 5377 5374 5370 5367 5363 5360 5356 5353 5350 5347 5344 5341 5338 5336 5334 5331 5329 5327 5326 5324 5322 5320 5319 5317 5316 5315 5314 5312 5311 5310 5309 5308 5307 5305
5402 5399 5396 5393 5389 5385 5382 5378 5374 5371 5367 5364 5361 5357 5354 5350 5347 5343 5340 5337 5334 5331 5328 5326 5324 5321 5319 5317 5315 5313 5312 5310 5308 5307 5305 5304 5303 5302 5300 5299 5298 5297 5296 5295
5392 5389 5386 5383 5379 5376 5372 5368 5365 5362 5358 5355 5351 5348 5345 5341 5338 5335 5331 5328 5325 5322 5319 5317 5314 5312 5309 5307 5305 5303 5302 5300 5298 5297 5295 5294 5292 5291 5290 5289 5287 5286 5286 5285
5383 5380 5377 5373 5370 5366 5363 5359 5356 5353 5349 5346 5343 5339 5336 5333 5329 5326 5323 5319 5316 5313 5310 5308 5305 5302 5300 5298 5296 5294 5292 5290 5289 5287 5285 5283 5282 5281 5279 5278 5277 5276 5275 5274
5374 5371 5367 5364 5361 5357 5354 5351 5347 5344 5341 5337 5334 5331 5328 5325 5321 5318 5315 5311 5308 5305 5302 5299 5296 5293 5291 5289 5287 5285 5283 5281 5279 5277 5275 5274 5272 5271 5269 5268 5267 5266 5265 5264
5365 5362 5359 5355 5352 5349 5346 5342 5339 5336 5333 5329 5326 5323 5320 5317 5314 5310 5307 5303 5300 5296 5293 5290 5287 5285 5282 5280 5278 5276 5274 5272 5270 5268 5266 5265 5263 5262 5260 5259 5257 5256 5255 5254
5357 5353 5350 5347 5344 5341 5337 5334 5331 5328 5325 5322 5318 5315 5312 5309 5306 5302 5299 5295 5292 5288 5285 5282 5279 5277 5274 5272 5269 5267 5265 5263 5261 5259 5258 5256 5254 5252 5251 5249 5248 5246 5245 5244
5348 5345 5342 5339 5336 5333 5329 5326 5323 5320 5317 5314 5311 5308 5305 5301 5298 5294 5291 5287 5284 5280 5277 5274 5271 5268 5266 5263 5261 5259 5257 5255 5253 5251 5249 5247 5245 5244 5242 5241 5239 5237 5236 5234
5341 5338 5334 5331 5328 5325 5322 5319 5316 5313 5310 5307 5303 5300 5297 5293 5290 5287 5283 5279 5276 5272 5269 5266 5263 5260 5258 5255 5253 5251 5249 5247 5245 5243 5241 5239 5237 5235 5233 5232 5230 5228 5227 5225
5334 5330 5327 5324 5321 5317 5314 5312 5309 5306 5303 5299 5296 5292 5289 5286 5282 5279 5275 5272 5268 5265 5262 5258 5255 5252 5250 5247 5245 5242 5240 5238 5236 5234 5232 5230 5228 5226 5225 5223 5221 5219 5218 5216
5326 5323 5320 5317 5313 5310 5307 5304 5301 5298 5295 5292 5289 5285 5282 5278 5275 5271 5268 5264 5260 5257 5254 5251 5248 5245 5242 5239 5236 5234 5232 5229 5227 5225 5223 5221 5219 5218 5216 5214 5212 5211 5209 5207